Temperature
30 31 32 32 31 32 31 31 31 31 31 30 30 30 30 29 28 27 26 25 24 23 22 21 20 20 19 19 19 18 18 18 18 18 18 18 17 17 17 17 17 17 16 16
29 30 31 31 32 32 32 32 31 31 31 31 30 30 30 29 28 27 26 24 23 22 21 21 20 20 19 19 18 18 18 18 17 17 17 17 17 17 17 16 16 16 16 16
28 30 30 29 31 32 32 32 32 31 31 31 30 29 29 29 28 27 25 24 23 22 21 20 20 19 19 18 18 18 18 18 17 17 17 17 17 17 16 16 16 16 16 15
27 28 27 30 32 32 32 32 32 31 31 31 30 29 29 28 28 27 25 24 23 22 21 20 19 19 19 18 18 18 17 17 17 17 17 17 17 16 16 16 16 16 15 15
27 27 28 30 31 31 31 29 31 30 30 30 30 29 28 27 27 26 25 24 23 22 21 20 19 18 18 18 18 17 17 17 17 17 17 16 16 16 16 15 15 15 15 15
26 26 26 28 30 31 30 28 29 29 29 29 29 28 26 25 25 25 24 23 22 21 20 20 19 18 18 18 17 17 17 17 17 16 16 16 16 16 15 15 15 15 14 14
25 25 26 27 29 29 27 26 27 27 27 27 26 26 24 24 24 23 23 22 21 21 20 19 18 18 18 17 17 17 17 16 16 16 16 16 15 15 15 15 14 14 14 14
24 24 24 26 27 25 24 25 25 25 25 25 24 24 23 23 23 22 22 21 21 20 19 18 18 17 17 17 17 17 16 16 16 16 15 15 15 15 14 14 14 14 13 13
25 24 23 23 23 23 23 23 23 24 24 23 23 23 22 22 21 21 21 20 20 19 18 18 17 17 17 17 16 16 16 16 15 15 15 14 14 14 14 14 14 13 13 13
24 23 23 23 22 22 22 22 22 22 22 22 22 21 21 21 20 20 19 19 19 18 17 17 17 16 16 16 16 16 16 15 15 14 14 14 14 13 13 13 13 13 13 13
22 22 22 22 21 21 21 21 21 21 21 21 21 20 20 19 19 19 18 18 18 17 17 16 16 16 16 16 16 15 15 15 14 14 13 13 13 13 13 13 13 13 12 12
21 21 21 20 20 20 20 20 20 20 20 20 19 19 19 19 18 18 18 17 17 16 16 16 16 15 15 15 15 15 14 14 13 13 13 13 13 12 12 12 12 12 12 12
20 20 19 19 19 19 19 19 19 19 19 19 18 18 18 18 17 17 17 16 16 16 15 15 15 15 15 15 15 14 14 14 13 13 13 12 12 12 12 11 11 11 11 11
19 19 19 18 18 18 18 18 18 18 18 18 17 17 17 17 16 16 16 16 15 15 15 15 15 15 15 14 14 13 13 13 13 13 12 12 12 11 11 11 11 10 10 10
18 18 18 18 17 17 18 18 18 18 18 17 17 17 16 16 15 15 15 15 14 14 14 14 14 14 14 14 13 13 12 12 12 12 12 11 11 11 11 10 10 10 10 10
17 17 17 17 17 17 17 17 17 17 17 16 16 16 15 15 15 14 14 14 14 14 14 13 13 13 13 13 12 12 12 12 12 12 11 11 11 11 10 10 10 9 9 9
17 17 16 16 16 16 16 16 16 16 16 16 15 15 15 14 14 13 13 13 13 13 13 13 13 13 12 12 12 11 11 11 11 11 11 10 10 10 10 10 9 9 9 9
16 16 16 16 15 15 16 15 16 16 15 15 15 14 14 14 13 13 13 13 12 12 12 12 12 12 11 11 11 11 11 10 10 10 10 10 10 10 10 9 9 9 8 8
15 15 15 15 15 15 15 15 15 15 14 14 14 13 13 13 12 12 12 12 11 11 11 11 11 11 11 11 10 10 10 10 10 10 10 10 9 9 9 9 9 8 8 8
14 14 14 14 14 14 14 14 14 14 13 13 13 13 12 12 12 11 11 11 11 11 11 11 11 10 10 10 10 10 10 10 10 10 9 9 9 9 9 9 8 8 8 8
13 13 13 14 14 14 14 14 13 13 13 12 12 12 11 11 11 11 11 10 10 10 10 10 10 10 10 10 10 10 10 10 10 9 9 9 9 9 9 9 8 8 8 8
12 12 12 13 13 13 13 13 13 12 12 12 12 11 11 11 10 10 10 10 10 10 10 10 10 10 10 10 10 10 10 10 9 9 9 9 9 9 9 9 8 8 8 8
11 11 11 11 12 12 12 12 12 12 11 11 11 11 11 10 10 10 10 10 10 10 9 9 9 9 9 9 9 10 10 9 9 9 9 9 9 9 9 9 9 8 8 8
10 10 10 11 11 11 11 11 11 11 11 11 11 10 10 10 10 10 10 10 9 9 9 9 9 9 9 9 9 9 9 9 9 9 9 9 9 9 9 9 9 9 8 8
9 10 10 10 10 10 10 10 10 10 10 10 10 10 10 10 10 10 10 9 9 9 9 9 9 9 9 9 9 9 9 9 9 9 9 9 9 9 9 9 9 9 9 8
9 9 10 10 10 10 10 10 10 10 10 10 10 10 10 10 10 9 9 9 9 9 9 9 9 9 9 9 9 9 9 9 9 9 9 9 9 9 9 9 9 9 9 8
9 9 9 9 9 10 10 10 10 10 10 10 10 10 10 10 10 9 9 9 9 9 9 9 9 9 9 9 9 9 9 9 9 9 9 9 9 9 9 9 9 9 8 8
Wind_Speed
18 16 14 13 16 17 16 15 13 9 7 4 4 6 6 8 9 11 11 11 10 9 8 7 7 7 7 7 7 6 6 5 4 4 3 3 3 3 2 2 2 2 2 2
17 19 17 14 13 15 17 15 15 12 7 3 3 5 6 8 9 10 10 10 10 10 9 8 7 7 7 7 7 6 6 5 5 4 3 3 3 3 3 3 3 3 2 2
14 16 17 17 14 12 11 12 12 11 5 4 3 4 4 5 7 9 10 10 10 10 9 8 7 7 8 7 7 7 6 6 6 5 4 4 4 4 4 4 3 3 3 3
12 13 17 14 13 13 11 9 8 5 3 2 4 5 3 3 5 7 9 10 10 10 10 9 8 8 8 8 7 7 6 6 5 5 5 4 4 5 4 4 3 3 3 3
11 14 15 11 8 10 9 5 3 1 0 1 2 4 3 3 4 5 7 9 10 11 11 10 10 9 8 8 8 7 6 6 5 5 5 5 5 4 4 4 3 3 3 3
11 13 11 7 7 6 6 5 2 3 3 3 2 1 3 5 5 6 6 9 10 11 11 10 10 10 9 8 7 6 5 5 5 5 5 5 5 5 4 4 3 3 3 3
15 14 8 5 7 6 7 1 5 5 6 5 5 5 4 5 5 6 7 9 9 10 10 10 9 8 7 7 6 6 6 6 5 5 4 5 4 4 4 4 3 3 3 3
14 15 8 8 4 2 4 6 7 7 7 7 7 7 6 5 6 7 7 8 9 9 9 8 8 8 7 6 6 6 6 6 5 4 4 4 4 3 3 3 3 3 3 3
6 4 4 6 7 7 6 6 6 6 7 6 6 6 6 6 5 7 7 7 7 9 9 8 7 7 7 6 6 6 6 5 5 4 3 4 3 3 2 2 2 2 2 2
2 4 5 6 7 7 7 7 6 6 5 5 5 6 5 5 5 6 6 7 7 8 8 7 6 6 6 6 6 6 6 5 4 4 4 3 2 2 1 1 1 1 1 2
4 1 3 5 6 7 7 6 6 5 5 6 5 5 5 5 6 6 6 6 7 6 6 7 7 6 6 7 6 6 5 5 4 4 4 4 4 4 3 4 3 1 1 1
2 3 3 3 6 6 6 5 5 4 5 5 4 4 4 4 5 5 6 6 7 7 6 6 7 6 6 6 5 6 5 4 3 3 4 4 4 5 10 8 8 8 6 5
3 4 4 4 5 4 4 4 5 3 3 3 3 3 3 4 5 5 6 6 7 7 7 6 7 6 5 5 4 4 4 4 3 3 3 3 4 4 3 5 8 9 8 8
3 3 4 5 5 4 4 3 3 1 1 2 2 3 4 4 5 5 5 6 6 7 7 7 7 6 5 4 4 3 3 3 3 3 3 3 2 2 3 3 3 3 5 7
4 4 4 3 5 5 4 3 2 1 1 2 3 3 4 4 5 5 5 6 7 7 7 6 6 6 5 4 4 3 3 2 2 3 3 3 3 2 3 3 4 4 3 3
4 5 5 5 5 5 4 4 3 2 2 3 3 3 4 5 5 5 5 6 7 7 6 6 6 6 5 4 4 3 3 4 3 3 3 3 3 3 3 3 4 4 3 3
6 6 6 6 5 5 4 3 3 2 2 3 3 4 4 5 5 5 5 6 6 6 6 5 5 5 4 4 4 3 3 4 3 3 2 3 3 3 3 3 4 4 3 3
7 8 7 6 6 5 4 4 3 2 2 3 4 3 3 5 5 6 6 7 7 7 6 5 4 4 4 4 3 3 3 3 3 3 3 3 3 3 3 3 4 4 4 4
7 7 7 6 6 6 5 4 2 1 2 3 4 4 4 5 6 7 7 7 7 7 5 5 4 4 5 4 3 3 4 4 4 3 3 4 3 3 3 3 3 3 4 4
5 5 5 4 4 5 4 3 2 3 3 3 4 5 6 6 7 7 7 6 4 4 5 5 5 4 5 4 1 3 3 4 4 4 4 3 3 3 3 3 4 4 3 3
3 3 4 3 3 3 2 1 2 4 4 4 5 5 6 7 7 7 6 5 5 5 5 5 4 4 3 2 1 3 4 4 4 4 3 3 3 3 3 3 3 3 3 3
4 3 2 1 1 1 2 2 3 4 5 5 6 7 7 7 7 6 5 4 5 5 4 4 3 4 3 2 3 4 5 5 4 3 3 3 3 3 3 3 3 2 3 3
3 2 0 1 1 2 3 3 4 5 5 6 6 7 7 6 6 5 5 4 5 4 3 4 5 6 3 2 2 3 4 3 3 3 3 3 3 3 3 3 3 2 2 3
1 1 2 2 3 5 5 5 5 5 6 7 6 6 6 6 5 5 5 6 5 4 4 6 6 4 2 2 2 3 3 3 2 2 3 3 3 3 2 2 2 2 3 3
2 2 3 3 4 4 5 6 6 5 6 5 6 6 5 5 5 5 6 7 8 6 5 6 5 3 2 1 2 2 2 2 1 1 1 1 1 2 2 2 2 2 2 3
3 3 3 3 4 4 4 5 5 5 5 5 5 5 6 6 7 6 6 7 7 5 4 4 4 4 2 1 1 2 2 3 2 1 1 0 1 1 0 1 1 1 1 1
5 5 4 5 5 4 4 5 5 5 5 5 5 5 6 6 6 6 6 5 5 4 4 4 4 3 2 1 1 2 2 1 1 0 0 0 1 1 1 1 1 1 1 0
Wind_Direction
258 264 258 234 223 226 231 243 253 260 250 206 180 147 148 155 152 147 150 151 149 145 142 139 139 142 146 141 136 135 138 143 145 147 140 142 139 136 137 135 126 99 89 74
248 256 258 254 238 226 225 232 245 255 257 193 150 136 147 149 156 156 157 159 157 155 151 150 151 152 146 140 138 137 140 136 133 132 132 130 126 123 110 99 92 90 87 83
252 244 249 250 247 243 238 235 239 246 239 200 164 125 144 154 165 162 161 164 164 160 156 153 152 147 145 142 138 138 132 128 129 127 122 117 121 112 104 94 83 78 81 83
254 255 245 244 246 245 239 246 242 229 216 202 146 132 131 144 154 156 161 162 160 156 151 149 145 140 138 139 137 135 132 132 129 125 124 121 113 104 98 92 87 82 77 78
247 246 246 245 239 240 232 237 280 266 256 336 146 135 101 85 114 136 151 146 147 151 150 147 144 143 142 141 140 143 140 133 130 131 130 122 113 107 105 105 101 95 92 89
250 252 246 261 281 279 245 213 18 27 30 19 38 204 70 63 92 106 112 129 139 142 141 140 139 142 146 147 146 146 138 129 126 128 126 123 122 119 121 123 119 112 100 96
246 254 251 310 320 283 239 194 32 40 39 40 52 53 63 73 91 103 109 122 129 133 135 134 134 139 146 143 143 138 131 128 125 123 122 126 126 130 135 132 127 127 116 107
236 246 249 352 346 10 38 42 44 45 47 56 68 68 65 68 95 104 111 119 127 126 124 127 134 139 139 131 126 125 127 128 129 131 136 129 126 133 139 146 146 138 129 117
232 227 92 51 61 54 42 44 36 32 42 59 68 68 71 69 93 108 112 116 118 125 123 123 129 134 136 127 126 126 124 121 120 121 110 116 129 134 144 167 167 158 155 142
251 118 93 71 63 48 41 41 32 31 32 56 71 72 76 79 81 95 112 118 118 122 130 128 127 126 126 125 123 126 129 128 124 119 116 105 93 92 101 75 97 107 93 105
220 139 76 59 38 31 30 30 26 23 35 55 73 79 78 83 85 87 97 106 116 120 123 126 120 113 113 119 128 133 136 134 135 133 123 101 74 43 54 57 47 57 67 77
288 24 16 26 19 23 22 17 14 24 41 54 66 81 85 94 95 94 99 105 110 113 114 116 115 114 115 120 131 136 138 139 139 134 128 123 111 78 49 58 63 62 63 81
355 357 352 339 348 3 6 358 1 18 44 66 77 97 103 105 102 101 102 111 119 122 119 115 112 109 107 116 124 130 139 143 142 136 140 145 141 137 116 70 64 61 62 69
347 340 323 331 327 332 334 328 335 9 62 93 108 114 111 112 111 112 111 117 119 120 119 120 119 115 110 114 119 126 135 127 130 134 141 138 141 153 148 141 118 74 58 66
300 300 290 295 296 299 297 297 284 245 169 126 123 121 120 120 119 119 118 121 122 120 119 123 123 118 115 117 122 133 135 127 126 129 133 132 140 143 134 130 123 116 108 78
292 293 290 274 273 277 282 280 267 251 202 147 133 120 115 119 121 123 122 127 131 128 127 128 122 119 121 126 131 131 115 108 108 128 135 143 148 145 135 131 124 123 128 127
275 274 277 270 270 274 276 274 261 242 196 155 134 125 132 131 133 133 132 131 127 121 120 119 116 120 123 124 127 124 117 116 114 121 124 127 127 126 122 124 125 125 123 129
267 266 266 260 258 265 270 278 268 237 163 132 129 136 144 142 145 143 136 129 121 112 107 107 110 120 116 107 108 118 119 124 131 122 111 104 108 116 119 121 124 125 127 137
266 259 255 251 248 248 249 252 245 120 110 128 143 144 139 131 130 129 125 124 124 120 112 109 115 124 114 101 93 112 118 121 115 108 112 112 117 117 119 125 131 138 139 145
274 269 258 249 248 241 236 225 187 154 146 142 141 139 130 123 123 121 116 113 112 113 119 120 127 121 118 110 97 130 128 130 129 129 127 133 138 135 134 139 141 143 148 155
300 276 258 240 230 216 203 201 160 149 141 137 135 128 124 123 124 126 127 123 109 105 121 128 128 120 119 125 197 145 135 131 134 135 139 139 140 142 143 147 148 153 158 159
324 309 283 267 224 151 126 121 128 131 130 129 128 126 126 127 125 118 113 113 119 115 131 131 124 109 104 147 161 138 136 137 137 139 139 143 150 152 153 154 156 160 164 167
325 318 284 145 141 127 106 112 123 128 130 131 132 135 134 131 133 134 128 118 123 129 137 126 114 107 98 173 146 137 137 138 139 146 153 166 174 165 161 163 165 169 171 184
25 84 119 126 130 131 122 118 118 117 117 115 119 123 128 125 118 115 117 121 121 131 122 117 125 129 181 192 160 142 136 141 157 170 171 168 157 153 157 161 168 169 177 193
90 105 116 125 125 124 123 124 121 119 118 120 122 124 127 126 126 124 121 125 128 133 126 135 154 171 200 178 136 136 147 131 121 101 125 140 156 161 169 181 184 193 201 205
106 107 103 104 110 117 122 119 119 125 125 121 118 123 122 120 121 122 123 128 129 137 135 144 156 178 197 200 148 139 126 127 150 184 186 187 225 202 223 266 248 237 211 198
101 101 108 109 110 118 120 121 118 116 116 118 114 114 115 118 121 124 128 134 140 145 140 145 153 164 175 177 132 117 109 117 148 251 68 19 307 304 280 245 274 301 317 291
Height
1472 1465 1464 1465 1468 1470 1474 1477 1484 1482 1481 1480 1478 1481 1484 1487 1490 1495 1500 1504 1508 1511 1514 1516 1518 1520 1522 1523 1525 1526 1527 1529 1530 1531 1531 1532 1533 1534 1535 1535 1536 1537 1537 1537
1476 1467 1463 1465 1462 1463 1467 1470 1473 1476 1478 1473 1477 1479 1483 1486 1490 1494 1498 1503 1507 1510 1512 1515 1517 1519 1521 1522 1524 1525 1527 1528 1529 1530 1531 1531 1532 1533 1534 1534 1535 1535 1536 1536
1481 1469 1468 1475 1464 1463 1464 1463 1468 1475 1474 1473 1476 1479 1483 1486 1489 1493 1497 1501 1505 1508 1511 1514 1516 1518 1520 1522 1524 1525 1527 1528 1529 1530 1530 1531 1532 1532 1533 1533 1534 1534 1534 1534
1481 1479 1490 1469 1454 1455 1461 1463 1463 1466 1469 1471 1476 1480 1483 1486 1488 1492 1495 1499 1503 1506 1510 1513 1515 1517 1519 1521 1523 1525 1526 1528 1529 1530 1530 1531 1531 1532 1532 1533 1533 1533 1533 1533
1483 1485 1479 1463 1456 1457 1463 1469 1465 1467 1470 1473 1476 1479 1484 1487 1488 1491 1494 1497 1501 1505 1508 1512 1515 1517 1519 1521 1523 1525 1526 1527 1528 1529 1530 1530 1531 1531 1532 1532 1532 1532 1532 1533
1483 1489 1489 1473 1459 1458 1462 1474 1471 1471 1473 1475 1477 1481 1488 1488 1490 1492 1494 1497 1501 1504 1507 1511 1514 1516 1519 1520 1522 1524 1525 1526 1528 1529 1529 1529 1530 1530 1531 1531 1532 1532 1532 1532
1487 1486 1478 1468 1464 1464 1478 1484 1477 1476 1478 1479 1482 1486 1490 1490 1491 1494 1496 1498 1501 1504 1507 1510 1513 1516 1518 1520 1522 1523 1524 1526 1527 1528 1529 1529 1530 1530 1530 1531 1531 1531 1532 1532
1484 1488 1488 1473 1470 1476 1483 1480 1480 1481 1482 1484 1486 1488 1490 1492 1492 1494 1497 1500 1502 1504 1507 1509 1512 1515 1517 1519 1520 1522 1523 1525 1526 1527 1528 1529 1529 1529 1530 1530 1530 1531 1531 1531
1477 1481 1480 1479 1481 1483 1483 1484 1484 1485 1486 1487 1488 1490 1491 1493 1494 1496 1499 1501 1503 1505 1507 1509 1511 1514 1516 1518 1519 1521 1522 1524 1525 1526 1527 1527 1528 1528 1529 1529 1530 1530 1530 1530
1476 1478 1480 1482 1483 1485 1485 1487 1487 1488 1488 1489 1490 1492 1493 1495 1496 1498 1500 1501 1503 1505 1507 1509 1511 1513 1515 1517 1518 1520 1521 1523 1524 1525 1525 1526 1527 1527 1528 1528 1528 1529 1529 1529
1478 1481 1482 1485 1486 1488 1488 1489 1489 1489 1490 1490 1491 1493 1495 1496 1497 1499 1500 1501 1503 1505 1507 1508 1510 1512 1513 1515 1517 1519 1520 1522 1523 1524 1525 1525 1525 1526 1526 1527 1527 1527 1527 1527
1482 1485 1486 1488 1489 1489 1490 1491 1491 1491 1491 1492 1493 1494 1495 1497 1498 1499 1500 1501 1503 1504 1506 1507 1508 1511 1512 1514 1516 1517 1519 1520 1521 1523 1523 1523 1524 1524 1525 1525 1526 1526 1525 1525
1486 1487 1488 1489 1490 1490 1491 1492 1492 1492 1492 1493 1494 1495 1496 1497 1498 1499 1500 1501 1502 1504 1505 1507 1508 1510 1511 1513 1515 1516 1518 1519 1520 1521 1522 1522 1522 1523 1523 1524 1524 1524 1524 1524
1488 1488 1489 1490 1491 1490 1491 1492 1492 1492 1493 1493 1494 1495 1496 1497 1498 1499 1500 1501 1502 1504 1505 1507 1508 1509 1510 1512 1514 1515 1517 1518 1518 1519 1520 1520 1521 1522 1522 1522 1522 1522 1522 1522
1488 1489 1490 1490 1491 1490 1491 1491 1492 1492 1493 1493 1494 1495 1496 1496 1497 1498 1499 1500 1502 1503 1504 1506 1507 1508 1509 1511 1513 1514 1515 1516 1517 1518 1518 1519 1519 1520 1520 1521 1521 1521 1521 1521
1488 1489 1489 1489 1490 1490 1490 1491 1491 1491 1492 1493 1494 1494 1495 1496 1497 1498 1499 1500 1501 1502 1503 1505 1506 1507 1508 1510 1511 1513 1514 1515 1516 1516 1517 1517 1518 1518 1519 1519 1520 1520 1520 1520
1488 1488 1488 1489 1489 1489 1489 1489 1490 1490 1490 1492 1493 1494 1495 1495 1496 1497 1498 1499 1501 1502 1503 1504 1505 1506 1508 1509 1510 1512 1513 1514 1514 1515 1516 1516 1516 1517 1517 1518 1518 1519 1520 1520
1486 1487 1487 1487 1488 1488 1487 1488 1488 1489 1490 1491 1492 1493 1493 1494 1495 1496 1498 1499 1500 1501 1502 1504 1505 1506 1507 1508 1510 1511 1512 1513 1514 1515 1515 1515 1516 1516 1517 1517 1518 1519 1519 1520
1483 1484 1484 1484 1485 1486 1486 1486 1487 1488 1488 1490 1491 1492 1492 1494 1495 1496 1497 1498 1500 1501 1502 1503 1504 1506 1507 1508 1509 1511 1512 1512 1513 1514 1515 1515 1516 1516 1517 1517 1518 1519 1519 1520
1481 1481 1481 1481 1482 1483 1484 1485 1486 1487 1488 1489 1490 1491 1492 1493 1494 1495 1496 1497 1499 1501 1502 1503 1504 1505 1506 1508 1509 1511 1512 1513 1513 1514 1515 1515 1516 1516 1517 1518 1519 1519 1520 1520
1479 1479 1479 1480 1480 1481 1482 1483 1485 1486 1487 1488 1489 1490 1491 1492 1494 1495 1496 1498 1500 1501 1502 1503 1504 1505 1506 1508 1510 1511 1512 1513 1514 1514 1515 1516 1517 1517 1518 1519 1519 1520 1520 1521
1478 1478 1478 1478 1479 1480 1481 1482 1483 1485 1486 1488 1489 1490 1491 1492 1494 1495 1497 1499 1500 1501 1502 1503 1504 1505 1507 1509 1510 1512 1513 1514 1514 1515 1516 1517 1517 1518 1519 1519 1520 1520 1521 1521
1476 1476 1477 1477 1478 1479 1481 1482 1483 1485 1486 1488 1489 1491 1492 1493 1494 1496 1498 1499 1500 1501 1503 1504 1505 1506 1508 1510 1511 1512 1513 1514 1515 1516 1517 1517 1518 1519 1519 1520 1520 1521 1521 1521
1475 1476 1476 1477 1478 1479 1481 1482 1483 1485 1486 1488 1490 1491 1493 1494 1496 1497 1498 1500 1501 1502 1504 1505 1506 1507 1509 1510 1511 1513 1514 1515 1516 1517 1517 1518 1519 1519 1520 1520 1520 1521 1521 1521
1475 1476 1476 1477 1478 1480 1481 1483 1484 1486 1487 1489 1491 1492 1494 1496 1497 1498 1500 1501 1502 1504 1505 1506 1507 1508 1509 1511 1512 1514 1515 1516 1516 1517 1518 1519 1519 1519 1520 1520 1520 1521 1521 1521
1476 1476 1477 1478 1479 1481 1483 1484 1486 1487 1489 1490 1492 1494 1496 1497 1499 1500 1501 1503 1504 1506 1507 1508 1509 1510 1511 1512 1514 1515 1515 1516 1517 1517 1518 1519 1519 1519 1519 1520 1520 1520 1520 1520
1477 1478 1479 1480 1482 1483 1484 1486 1488 1489 1491 1492 1494 1496 1497 1499 1500 1502 1503 1504 1506 1507 1508 1510 1511 1512 1513 1514 1515 1516 1516 1517 1517 1518 1518 1518 1518 1518 1518 1519 1519 1519 1518 1518